New Haven Weather Center

Moon Phase Calendar



Online Cameras

 


      

Current Conditions in New Haven
5/17/2021 5:37:20 PM

70°F
Feels Like 69
Clouds
Humidity
37%
Pressure
30.24"
Wind
8 mph (SSW)
Dew Point
43°F
UV Index
1/10 (Low)
Visibility
6 mi

Hourly Forecast

Date & Time Mon, May 17
5:00 PM
Mon, May 17
6:00 PM
Mon, May 17
7:00 PM
Mon, May 17
8:00 PM
Mon, May 17
9:00 PM
Mon, May 17
10:00 PM
Mon, May 17
11:00 PM
Tue, May 18
12:00 AM
Tue, May 18
1:00 AM
Tue, May 18
2:00 AM
Tue, May 18
3:00 AM
Tue, May 18
4:00 AM
Tue, May 18
5:00 AM
Tue, May 18
6:00 AM
Tue, May 18
7:00 AM
Tue, May 18
8:00 AM
Tue, May 18
9:00 AM
Tue, May 18
10:00 AM
Tue, May 18
11:00 AM
Tue, May 18
12:00 PM
Tue, May 18
1:00 PM
Tue, May 18
2:00 PM
Tue, May 18
3:00 PM
Tue, May 18
4:00 PM
Tue, May 18
5:00 PM
Tue, May 18
6:00 PM
Tue, May 18
7:00 PM
Tue, May 18
8:00 PM
Tue, May 18
9:00 PM
Tue, May 18
10:00 PM
Tue, May 18
11:00 PM
Wed, May 19
12:00 AM
Wed, May 19
1:00 AM
Wed, May 19
2:00 AM
Wed, May 19
3:00 AM
Wed, May 19
4:00 AM
Wed, May 19
5:00 AM
Wed, May 19
6:00 AM
Wed, May 19
7:00 AM
Wed, May 19
8:00 AM
Wed, May 19
9:00 AM
Wed, May 19
10:00 AM
Wed, May 19
11:00 AM
Wed, May 19
12:00 PM
Wed, May 19
1:00 PM
Wed, May 19
2:00 PM
Wed, May 19
3:00 PM
Wed, May 19
4:00 PM
Condition
Clouds

Rain

Clouds

Rain

Rain

Rain

Clouds

Clouds

Clouds

Clouds

Clouds

Clouds

Clouds

Clouds

Clouds

Clouds

Clouds

Clouds

Rain

Rain

Clouds

Clouds

Clouds

Clouds

Clouds

Clouds

Clouds

Clouds

Clouds

Clouds

Clouds

Clouds

Clouds

Clouds

Clear

Clear

Clear

Clear

Clear

Clear

Clear

Clear

Clear

Clouds

Clouds

Clouds

Clouds

Clouds
Temperature 70°F70°F69°F66°F62°F58°F55°F55°F54°F54°F54°F54°F54°F55°F56°F60°F63°F65°F67°F70°F70°F69°F72°F68°F68°F69°F67°F64°F62°F61°F60°F60°F60°F59°F58°F57°F57°F57°F60°F63°F67°F69°F71°F73°F75°F76°F76°F74°F
Feels Like 68°F69°F68°F65°F61°F57°F54°F54°F54°F53°F53°F53°F53°F54°F55°F59°F62°F64°F67°F69°F69°F68°F71°F68°F67°F68°F66°F63°F62°F61°F60°F59°F59°F58°F57°F56°F56°F56°F59°F63°F66°F69°F70°F72°F74°F75°F76°F73°F
Cloudiness 64%75%65%54%51%38%23%20%22%32%92%96%97%98%98%94%99%100%95%77%78%81%76%87%91%91%93%93%56%65%69%61%53%57%4%5%5%6%5%4%5%5%8%14%12%12%53%75%
Visibility 6 mi6 mi6 mi6 mi6 mi6 mi6 mi6 mi6 mi6 mi6 mi6 mi6 mi6 mi6 mi6 mi6 mi6 mi6 mi6 mi6 mi6 mi6 mi6 mi6 mi6 mi6 mi6 mi6 mi6 mi6 mi6 mi6 mi6 mi6 mi6 mi6 mi6 mi6 mi6 mi6 mi6 mi6 mi6 mi6 mi6 mi6 mi6 mi
Precipitation 0%20%6%35%52%48%48%47%35%31%0%0%0%0%0%0%9%1%22%26%12%12%0%0%0%0%0%0%0%1%1%0%0%0%0%0%0%0%0%0%0%0%0%0%0%0%0%0%
Humidity 39%37%40%49%67%81%89%87%87%87%86%85%85%83%82%75%62%58%56%51%48%53%46%56%58%57%63%68%72%75%78%79%78%78%81%83%83%83%79%70%63%53%48%46%45%45%44%49%
Dew Point 44°F43°F44°F47°F50°F52°F51°F51°F50°F50°F50°F50°F49°F49°F51°F51°F50°F50°F51°F50°F49°F51°F50°F52°F52°F53°F54°F53°F53°F53°F53°F53°F53°F52°F52°F52°F52°F52°F53°F53°F53°F51°F50°F50°F51°F52°F52°F53°F
Pressure 30.24"30.24"30.24"30.24"30.27"30.3"30.3"30.3"30.3"30.27"30.27"30.27"30.27"30.27"30.3"30.3"30.3"30.3"30.27"30.27"30.24"30.24"30.21"30.21"30.21"30.21"30.21"30.21"30.24"30.24"30.24"30.24"30.24"30.24"30.24"30.24"30.24"30.27"30.27"30.3"30.3"30.3"30.3"30.3"30.27"30.27"30.24"30.24"
Wind Speed 7.1 mph7.8 mph11.4 mph6.1 mph2.4 mph5.8 mph3.3 mph1.2 mph2.3 mph2.9 mph3.7 mph3.7 mph4.1 mph4.2 mph5.5 mph6.6 mph8.2 mph8 mph7.4 mph7.5 mph6.8 mph6 mph7.4 mph6.8 mph7.2 mph6.8 mph5.4 mph5.9 mph5.5 mph5.4 mph5.3 mph6.2 mph7 mph6.9 mph6.4 mph5.3 mph5.2 mph5.5 mph5.3 mph6.4 mph6.6 mph6.1 mph5 mph3.8 mph2.5 mph2.1 mph1 mph3.3 mph
Wind
Direction
211°
SSW
220°
SW
240°
WSW
238°
WSW
330°
NNW
60°
ENE
86°
E
157°
SSE
214°
SW
256°
WSW
265°
W
277°
W
289°
WNW
265°
W
252°
WSW
258°
WSW
259°
W
261°
W
264°
W
267°
W
274°
W
277°
W
280°
W
273°
W
272°
W
273°
W
259°
W
254°
WSW
270°
W
296°
WNW
315°
NW
305°
NW
305°
NW
323°
NW
335°
NNW
338°
NNW
341°
NNW
333°
NNW
324°
NW
327°
NNW
331°
NNW
338°
NNW
333°
NNW
332°
NNW
314°
NW
295°
WNW
12°
NNE
96°
E

Daily Forecast

Date High Low Precip. Humidity
Today
May 17

Rain
70 °F
51 °F
52%
52%
Tuesday
May 18

Rain
72 °F
54 °F
47%
51%
Wednesday
May 19

Clear
76 °F
57 °F
0%
48%
Thursday
May 20

Clouds
69 °F
56 °F
0%
59%
Friday
May 21

Rain
61 °F
56 °F
97%
68%
Saturday
May 22

Rain
57 °F
56 °F
100%
97%
Sunday
May 23

Rain
68 °F
56 °F
60%
89%
Monday
May 24

Rain
62 °F
52 °F
75%
93%
Tuesday
May 25

Clouds
65 °F
51 °F
0%
71%
Wednesday
May 26

Rain
76 °F
59 °F
52%
73%
Thursday
May 27

Rain
75 °F
57 °F
87%
68%
Friday
May 28

Rain
67 °F
54 °F
100%
71%
Saturday
May 29

Clouds
62 °F
49 °F
0%
49%
Sunday
May 30

Rain
67 °F
52 °F
100%
96%
Monday
May 31

Clear
67 °F
48 °F
0%
38%
Tuesday
Jun 1

Clouds
64 °F
54 °F
0%
52%

Temperature 8-14 Day Outlook



Precipitation 8-14 Day Outlook




Quick Links
New Haven News
New Haven Photos
New Haven Videos




About Us
Contact Us
Site Map
Search Site
Advertise With Us
   
NewHaven.USCoast.info
THE NEW HAVEN WEBSITE

Copyright 2021, Coastal Town
Privacy    |    Legal